Simultaneous Nadir Overpasses (SNOs) Predictions

Prediction of SNOs between NOAA-20 and AQUA Satellite Orbit:

Table of predicted SNOs for the next 14.0 days since TLE Epoch: 11/4/2022
Index Date (NOAA-20) Time (NOAA-20) Lat,Lon (NOAA-20) SZA (NOAA-20 ) Date (AQUA) Time (AQUA) Lat,Lon (AQUA) SZA (AQUA ) Distance(km) Time Diff (sec)
1 11/06/2022 14:03:12 -79.38, 44.90 72.32 11/06/2022 14:03:49 -79.37, 44.80 72.33 2.19 37
2 11/06/2022 14:53:49 79.61,-145.83 107.32 11/06/2022 14:53:08 79.61,-145.89 107.37 1.34 41
3 11/09/2022 05:29:22 79.28, -7.37 108.60 11/09/2022 05:29:53 79.29, -7.25 108.55 2.76 31
4 11/09/2022 06:19:57 -79.64, 162.83 71.95 11/09/2022 06:19:10 -79.64, 162.84 71.92 0.34 47
5 11/11/2022 20:55:27 -79.44, -57.67 70.91 11/11/2022 20:55:52 -79.44, -57.74 70.92 1.41 25
6 11/11/2022 21:46:04 79.67, 111.59 108.73 11/11/2022 21:45:11 79.66, 111.54 108.78 1.15 53
7 11/14/2022 12:21:33 79.50,-108.71 109.70 11/14/2022 12:21:51 79.49,-108.83 109.71 2.50 18
8 11/14/2022 13:12:14 -79.65, 59.92 70.54 11/14/2022 13:11:13 -79.66, 60.00 70.51 1.53 61
9 11/17/2022 03:47:44 -79.45,-160.66 69.55 11/17/2022 03:47:53 -79.45,-160.62 69.56 0.81 9



Historial Predications of SNOs between NOAA-20 and AQUA
